Погода в Лхоксёмаве

Индонезия     5°12′08″N   97°06′33″E
темп.,
°C
ветер,
м/с
пор.,
м/с
влажн.,
%
обл.,
%
осадки,
мм/ч
давл.,
гПа
погр.,
м
2 марта, вт
вт201:00+25ююз227885 0.0 1013154
04:00+25ююз11820 0.0 1010121
07:00+24юв22820 0.0 1011197
10:00+28в23650 0.0 1013558
13:00+29ссв55650 0.0 1011629
16:00+29св44680 0.0 1008689
19:00+28св22730 0.0 1010573
22:00+27ю11750 0.0 1012179
3 марта, ср
ср301:00+26юз33810 0.0 1012145
04:00+26ю11790 0.6 101091
07:00+25ююв22800 0.6 1011148
10:00+29в23680 0.1 1013616
13:00+29св55690 0.1 1010757
16:00+29св56700 0.1 1008720
19:00+28всв23763 0.1 1010541
22:00+27юв227792 0.2 1012305
4 марта, чт
чт401:00+26ю228561 0.5 1011121
04:00+25юв238524 0.4 1010230
07:00+25ююв238712 0.4 1011179
10:00+28в13710 0.0 1013487
13:00+29ссв55690 0.0 1010627
16:00+29св44670 0.5 1008704
19:00+28всв34772 1.1 1010360
22:00+27вюв458156 0.6 1012360
5 марта, пт
пт501:00+26юв348428 0.8 1011233
04:00+26юв348433 0.0 1009233
07:00+25юв348326 0.0 1011253
10:00+29в476531 0.0 1013823
13:00+30св776735 0.0 1011929
16:00+29св68789 1.9 1008627
19:00+28всв34827 3.9 1010476
22:00+27юв22822 4.8 1012164
6 марта, сб
сб601:00+26ююз228535 11.9 101244
04:00+26ююз228025 2.6 100958
07:00+26ююв228162 2.8 1011208
10:00+28вюв127299 0.9 1012426
13:00+28ссв347482 1.1 1011485
16:00+29ссв336999 0.2 1009823
19:00+28ссв227296 0.2 1010459
22:00+28зсз1273100 0.2 1013338